| time (UTC) | temp F | wind direction | speed MPH | gust MPH | rain 1hr in | rain 24hr in | rain mn in | humidity % | barometer mb |
| 20260508114030 | 62 | 222 | 0.0 | 2.0 | 0.00 | 0.00 | 0.00 | 87 | 1015.1 |
| 20260508113536 | 62 | 222 | 0.0 | 2.0 | 0.00 | 0.00 | 0.00 | 87 | 1015.1 |
| 20260508113037 | 62 | 222 | 0.0 | 4.0 | 0.00 | 0.00 | 0.00 | 87 | 1015.1 |
| 20260508112519 | 62 | 222 | 1.0 | 4.0 | 0.00 | 0.00 | 0.00 | 87 | 1015.1 |
| 20260508112025 | 62 | 213 | 1.0 | 3.0 | 0.00 | 0.00 | 0.00 | 88 | 1015.2 |
| 20260508111531 | 62 | 213 | 0.0 | 1.0 | 0.00 | 0.00 | 0.00 | 88 | 1015.2 |
| 20260508111036 | 62 | 212 | 0.0 | 1.0 | 0.00 | 0.00 | 0.00 | 88 | 1015.2 |
| 20260508110521 | 62 | 212 | 0.0 | 1.0 | 0.00 | 0.00 | 0.00 | 88 | 1015.1 |
| 20260508110046 | 62 | 212 | 0.0 | 1.0 | 0.00 | 0.00 | 0.00 | 88 | 1015.0 |
| 20260508105551 | 62 | 212 | 0.0 | 0.0 | 0.00 | 0.00 | 0.00 | 88 | 1015.1 |
| 20260508105020 | 62 | 212 | 0.0 | 2.0 | 0.00 | 0.00 | 0.00 | 87 | 1015.0 |
| 20260508104522 | 62 | 212 | 0.0 | 2.0 | 0.00 | 0.00 | 0.00 | 87 | 1015.0 |
| 20260508104047 | 62 | 212 | 0.0 | 2.0 | 0.00 | 0.00 | 0.00 | 87 | 1015.1 |
| 20260508103536 | 62 | 212 | 0.0 | 2.0 | 0.00 | 0.00 | 0.00 | 87 | 1015.1 |
| 20260508103021 | 62 | 212 | 0.0 | 4.0 | 0.00 | 0.00 | 0.00 | 87 | 1015.0 |
| 20260508102526 | 62 | 212 | 1.0 | 4.0 | 0.00 | 0.00 | 0.00 | 87 | 1015.1 |
| 20260508102032 | 62 | 211 | 0.0 | 3.0 | 0.00 | 0.00 | 0.00 | 87 | 1015.1 |
| 20260508101520 | 62 | 211 | 0.0 | 3.0 | 0.00 | 0.00 | 0.00 | 87 | 1015.1 |
| 20260508101023 | 62 | 211 | 1.0 | 3.0 | 0.00 | 0.00 | 0.00 | 87 | 1015.1 |
| 20260508100548 | 62 | 119 | 0.0 | 0.0 | 0.00 | 0.00 | 0.00 | 87 | 1015.1 |
| 20260508100031 | 62 | 119 | 0.0 | 3.0 | 0.00 | 0.00 | 0.00 | 87 | 1015.2 |
| 20260508095536 | 62 | 119 | 0.0 | 3.0 | 0.00 | 0.00 | 0.00 | 87 | 1015.2 |
| 20260508095043 | 62 | 119 | 0.0 | 2.0 | 0.00 | 0.00 | 0.00 | 87 | 1015.2 |
| 20260508094524 | 62 | 119 | 0.0 | 2.0 | 0.00 | 0.00 | 0.00 | 87 | 1015.1 |
| 20260508094048 | 62 | 119 | 0.0 | 1.0 | 0.00 | 0.00 | 0.00 | 87 | 1015.1 |
| 20260508093530 | 62 | 119 | 0.0 | 1.0 | 0.00 | 0.00 | 0.00 | 87 | 1015.1 |
| 20260508093028 | 62 | 119 | 0.0 | 2.0 | 0.00 | 0.00 | 0.00 | 87 | 1015.2 |
| 20260508092536 | 62 | 119 | 0.0 | 2.0 | 0.00 | 0.00 | 0.00 | 87 | 1015.2 |
| 20260508092022 | 63 | 119 | 0.0 | 0.0 | 0.00 | 0.00 | 0.00 | 87 | 1015.3 |
| 20260508091523 | 63 | 119 | 0.0 | 1.0 | 0.00 | 0.00 | 0.00 | 86 | 1015.2 |
| 20260508091050 | 63 | 119 | 0.0 | 2.0 | 0.00 | 0.00 | 0.00 | 86 | 1015.3 |
| 20260508090519 | 63 | 119 | 0.0 | 3.0 | 0.00 | 0.00 | 0.00 | 87 | 1015.2 |
| 20260508090028 | 63 | 119 | 1.0 | 3.0 | 0.00 | 0.00 | 0.00 | 86 | 1015.3 |
| 20260508085537 | 63 | 119 | 0.0 | 3.0 | 0.00 | 0.00 | 0.00 | 86 | 1015.3 |
| 20260508085021 | 63 | 118 | 0.0 | 1.0 | 0.00 | 0.00 | 0.00 | 86 | 1015.3 |
| 20260508084524 | 63 | 118 | 0.0 | 0.0 | 0.00 | 0.00 | 0.00 | 86 | 1015.3 |
| 20260508084033 | 63 | 118 | 0.0 | 0.0 | 0.00 | 0.00 | 0.00 | 86 | 1015.5 |
| 20260508083557 | 63 | 118 | 0.0 | 1.0 | 0.00 | 0.00 | 0.00 | 86 | 1015.5 |
| 20260508083022 | 63 | 118 | 0.0 | 1.0 | 0.00 | 0.00 | 0.00 | 86 | 1015.5 |
| 20260508082525 | 63 | 118 | 0.0 | 1.0 | 0.00 | 0.00 | 0.00 | 86 | 1015.6 |
| 20260508082026 | 63 | 118 | 0.0 | 2.0 | 0.00 | 0.00 | 0.00 | 86 | 1015.7 |
| 20260508081533 | 63 | 118 | 0.0 | 3.0 | 0.00 | 0.00 | 0.00 | 86 | 1015.6 |
| 20260508081057 | 63 | 118 | 1.0 | 3.0 | 0.00 | 0.00 | 0.00 | 86 | 1015.7 |
| 20260508080520 | 63 | 120 | 1.0 | 2.0 | 0.00 | 0.00 | 0.00 | 86 | 1015.8 |
| 20260508080027 | 63 | 120 | 0.0 | 1.0 | 0.00 | 0.00 | 0.00 | 86 | 1015.9 |
| 20260508075536 | 63 | 120 | 0.0 | 3.0 | 0.00 | 0.00 | 0.00 | 86 | 1015.8 |
| 20260508075019 | 62 | 120 | 0.0 | 4.0 | 0.00 | 0.00 | 0.00 | 86 | 1015.8 |
| 20260508074544 | 62 | 119 | 0.0 | 4.0 | 0.00 | 0.00 | 0.00 | 86 | 1015.8 |
| 20260508074046 | 62 | 120 | 2.0 | 4.0 | 0.00 | 0.00 | 0.00 | 86 | 1015.8 |
| 20260508073523 | 62 | 194 | 1.0 | 2.0 | 0.00 | 0.00 | 0.00 | 86 | 1015.8 |
| 20260508073025 | 62 | 234 | 1.0 | 2.0 | 0.00 | 0.00 | 0.00 | 86 | 1015.8 |
| 20260508072531 | 62 | 234 | 0.0 | 0.0 | 0.00 | 0.00 | 0.00 | 86 | 1015.9 |
| 20260508072018 | 62 | 234 | 0.0 | 2.0 | 0.00 | 0.00 | 0.00 | 86 | 1016.0 |
| 20260508071519 | 62 | 234 | 0.0 | 2.0 | 0.00 | 0.00 | 0.00 | 86 | 1016.0 |
| 20260508071023 | 62 | 234 | 0.0 | 2.0 | 0.00 | 0.00 | 0.00 | 86 | 1016.0 |
| 20260508070528 | 62 | 234 | 0.0 | 2.0 | 0.00 | 0.00 | 0.00 | 86 | 1015.9 |
| 20260508070056 | 62 | 234 | 0.0 | 2.0 | 0.00 | 0.00 | 0.00 | 86 | 1015.9 |
| 20260508065537 | 62 | 234 | 1.0 | 2.0 | 0.00 | 0.00 | 0.00 | 86 | 1016.0 |
| 20260508065040 | 62 | 234 | 0.0 | 4.0 | 0.00 | 0.00 | 0.00 | 86 | 1016.0 |
| 20260508064525 | 62 | 234 | 1.0 | 4.0 | 0.00 | 0.00 | 0.00 | 86 | 1016.0 |
| 20260508064028 | 62 | 234 | 0.0 | 3.0 | 0.00 | 0.00 | 0.00 | 86 | 1016.0 |
| 20260508063531 | 62 | 234 | 1.0 | 3.0 | 0.00 | 0.00 | 0.00 | 86 | 1016.0 |
| 20260508063029 | 62 | 234 | 0.0 | 3.0 | 0.00 | 0.00 | 0.00 | 86 | 1016.0 |
| 20260508062534 | 62 | 234 | 0.0 | 1.0 | 0.00 | 0.00 | 0.00 | 86 | 1016.0 |
| 20260508062021 | 63 | 234 | 0.0 | 2.0 | 0.00 | 0.00 | 0.00 | 86 | 1016.1 |
| 20260508061543 | 63 | 234 | 0.0 | 2.0 | 0.00 | 0.00 | 0.00 | 86 | 1016.1 |
| 20260508061024 | 63 | 234 | 0.0 | 2.0 | 0.00 | 0.00 | 0.00 | 86 | 1016.0 |
| 20260508060526 | 63 | 234 | 0.0 | 4.0 | 0.00 | 0.00 | 0.00 | 86 | 1016.1 |
| 20260508060028 | 63 | 234 | 1.0 | 4.0 | 0.00 | 0.00 | 0.00 | 86 | 1016.1 |
| 20260508055526 | 63 | 234 | 0.0 | 4.0 | 0.00 | 0.00 | 0.00 | 86 | 1016.1 |
| 20260508055046 | 63 | 234 | 1.0 | 4.0 | 0.00 | 0.00 | 0.00 | 86 | 1016.1 |
| 20260508054550 | 63 | 250 | 0.0 | 3.0 | 0.00 | 0.00 | 0.00 | 86 | 1016.0 |
| 20260508054028 | 63 | 250 | 1.0 | 3.0 | 0.00 | 0.00 | 0.00 | 86 | 1016.0 |
| 20260508053527 | 63 | 250 | 1.0 | 2.0 | 0.00 | 0.00 | 0.00 | 86 | 1016.0 |
| 20260508053026 | 63 | 250 | 0.0 | 2.0 | 0.00 | 0.00 | 0.00 | 86 | 1016.1 |
| 20260508052535 | 63 | 250 | 0.0 | 3.0 | 0.00 | 0.00 | 0.00 | 86 | 1016.1 |
| 20260508052023 | 63 | 250 | 0.0 | 3.0 | 0.00 | 0.00 | 0.00 | 86 | 1016.1 |
| 20260508051522 | 63 | 250 | 1.0 | 3.0 | 0.00 | 0.00 | 0.00 | 86 | 1016.0 |
| 20260508051028 | 63 | 250 | 1.0 | 3.0 | 0.00 | 0.00 | 0.00 | 86 | 1016.1 |
| 20260508050537 | 63 | 250 | 2.0 | 4.0 | 0.00 | 0.00 | 0.00 | 86 | 1016.1 |
| 20260508050058 | 63 | 252 | 2.0 | 4.0 | 0.00 | 0.00 | 0.00 | 86 | 1016.0 |
| 20260508045546 | 63 | 251 | 1.0 | 3.0 | 0.00 | 0.00 | 0.00 | 86 | 1016.1 |
| 20260508045027 | 63 | 251 | 1.0 | 3.0 | 0.00 | 0.00 | 0.00 | 86 | 1016.0 |
| 20260508044547 | 63 | 254 | 1.0 | 3.0 | 0.00 | 0.00 | 0.00 | 86 | 1016.0 |
| 20260508044025 | 63 | 254 | 0.0 | 3.0 | 0.00 | 0.00 | 0.00 | 86 | 1015.9 |
| 20260508043527 | 63 | 254 | 2.0 | 3.0 | 0.00 | 0.00 | 0.00 | 86 | 1015.9 |
| 20260508043033 | 63 | 254 | 0.0 | 4.0 | 0.00 | 0.00 | 0.00 | 86 | 1015.8 |
| 20260508042539 | 63 | 254 | 2.0 | 4.0 | 0.00 | 0.00 | 0.00 | 86 | 1015.7 |
| 20260508042028 | 63 | 254 | 1.0 | 3.0 | 0.00 | 0.00 | 0.00 | 86 | 1015.7 |
| 20260508041531 | 63 | 254 | 1.0 | 3.0 | 0.00 | 0.00 | 0.00 | 86 | 1015.5 |
| 20260508041032 | 63 | 254 | 0.0 | 2.0 | 0.00 | 0.00 | 0.00 | 86 | 1015.4 |
| 20260508040538 | 63 | 254 | 0.0 | 4.0 | 0.00 | 0.00 | 0.00 | 86 | 1015.4 |
| 20260508040046 | 63 | 254 | 2.0 | 5.0 | 0.00 | 0.00 | 0.00 | 86 | 1015.4 |
| 20260508035526 | 63 | 252 | 1.0 | 5.0 | 0.00 | 0.00 | 0.00 | 86 | 1015.3 |
| 20260508035025 | 63 | 252 | 0.0 | 5.0 | 0.00 | 0.00 | 0.00 | 85 | 1015.2 |
| 20260508034551 | 63 | 256 | 1.0 | 5.0 | 0.00 | 0.00 | 0.00 | 86 | 1015.1 |
| 20260508034036 | 63 | 254 | 1.0 | 4.0 | 0.00 | 0.00 | 0.00 | 85 | 1015.1 |
| 20260508033520 | 63 | 270 | 1.0 | 5.0 | 0.00 | 0.00 | 0.00 | 85 | 1015.0 |
| 20260508033021 | 63 | 280 | 0.0 | 5.0 | 0.00 | 0.00 | 0.00 | 85 | 1014.9 |
| 20260508032550 | 63 | 286 | 2.0 | 5.0 | 0.00 | 0.00 | 0.00 | 85 | 1014.8 |
| 20260508032037 | 63 | 258 | 1.0 | 4.0 | 0.00 | 0.00 | 0.00 | 85 | 1014.6 |
| 20260508031521 | 63 | 263 | 2.0 | 6.0 | 0.00 | 0.00 | 0.00 | 85 | 1014.6 |
| 20260508031026 | 63 | 281 | 1.0 | 6.0 | 0.00 | 0.00 | 0.00 | 85 | 1014.5 |
| 20260508030552 | 63 | 258 | 2.0 | 5.0 | 0.00 | 0.00 | 0.00 | 85 | 1014.5 |
| 20260508030032 | 63 | 290 | 2.0 | 5.0 | 0.00 | 0.00 | 0.00 | 85 | 1014.5 |
| 20260508025522 | 63 | 266 | 1.0 | 5.0 | 0.00 | 0.00 | 0.00 | 85 | 1014.5 |
| 20260508025025 | 63 | 267 | 1.0 | 4.0 | 0.00 | 0.00 | 0.00 | 85 | 1014.5 |
| 20260508024527 | 63 | 284 | 1.0 | 3.0 | 0.00 | 0.00 | 0.00 | 85 | 1014.4 |
| 20260508024024 | 63 | 284 | 1.0 | 4.0 | 0.00 | 0.00 | 0.00 | 84 | 1014.3 |
| 20260508023550 | 63 | 285 | 1.0 | 4.0 | 0.00 | 0.00 | 0.00 | 84 | 1014.3 |
| 20260508023056 | 63 | 264 | 1.0 | 4.0 | 0.00 | 0.00 | 0.00 | 84 | 1014.2 |
| 20260508022553 | 64 | 251 | 1.0 | 4.0 | 0.00 | 0.00 | 0.00 | 83 | 1014.2 |
| 20260508022035 | 64 | 252 | 1.0 | 6.0 | 0.00 | 0.00 | 0.00 | 83 | 1014.2 |
| 20260508021532 | 64 | 313 | 0.0 | 6.0 | 0.00 | 0.00 | 0.00 | 83 | 1014.2 |
| 20260508021031 | 64 | 256 | 2.0 | 4.0 | 0.00 | 0.00 | 0.00 | 82 | 1014.2 |
| 20260508020553 | 64 | 239 | 0.0 | 5.0 | 0.00 | 0.00 | 0.00 | 82 | 1014.2 |
| 20260508020037 | 64 | 239 | 2.0 | 5.0 | 0.00 | 0.00 | 0.00 | 82 | 1014.1 |
| 20260508015520 | 64 | 224 | 2.0 | 5.0 | 0.00 | 0.00 | 0.00 | 82 | 1014.1 |
| 20260508015027 | 64 | 224 | 2.0 | 5.0 | 0.00 | 0.00 | 0.00 | 82 | 1014.1 |
| 20260508014534 | 64 | 313 | 1.0 | 5.0 | 0.00 | 0.00 | 0.00 | 81 | 1014.1 |
| 20260508014019 | 65 | 265 | 3.0 | 7.0 | 0.00 | 0.00 | 0.00 | 81 | 1014.1 |
| 20260508013529 | 65 | 275 | 3.0 | 7.0 | 0.00 | 0.00 | 0.00 | 81 | 1014.1 |
| 20260508013030 | 65 | 243 | 1.0 | 5.0 | 0.00 | 0.00 | 0.00 | 81 | 1014.1 |
| 20260508012538 | 65 | 244 | 2.0 | 5.0 | 0.00 | 0.00 | 0.00 | 81 | 1014.1 |
| 20260508012021 | 65 | 232 | 1.0 | 5.0 | 0.00 | 0.00 | 0.00 | 80 | 1014.0 |
| 20260508011601 | 65 | 234 | 2.0 | 6.0 | 0.00 | 0.00 | 0.00 | 80 | 1014.0 |
| 20260508011023 | 66 | 285 | 3.0 | 6.0 | 0.00 | 0.00 | 0.00 | 80 | 1014.1 |
| 20260508010528 | 66 | 215 | 1.0 | 5.0 | 0.00 | 0.00 | 0.00 | 80 | 1014.1 |
| 20260508010032 | 66 | 250 | 2.0 | 5.0 | 0.00 | 0.00 | 0.00 | 79 | 1014.1 |
| 20260508005531 | 66 | 252 | 1.0 | 5.0 | 0.00 | 0.00 | 0.00 | 79 | 1014.1 |
| 20260508005035 | 66 | 304 | 2.0 | 7.0 | 0.00 | 0.00 | 0.00 | 79 | 1014.1 |
| 20260508004536 | 66 | 259 | 3.0 | 7.0 | 0.00 | 0.00 | 0.00 | 78 | 1014.1 |
| 20260508004022 | 66 | 267 | 3.0 | 7.0 | 0.00 | 0.00 | 0.00 | 78 | 1014.1 |
| 20260508003523 | 66 | 269 | 2.0 | 7.0 | 0.00 | 0.00 | 0.00 | 78 | 1014.0 |
| 20260508003058 | 66 | 269 | 1.0 | 7.0 | 0.00 | 0.00 | 0.00 | 78 | 1014.0 |
| 20260508002543 | 66 | 285 | 2.0 | 7.0 | 0.00 | 0.00 | 0.00 | 78 | 1014.0 |
| 20260508002037 | 66 | 307 | 2.0 | 8.0 | 0.00 | 0.00 | 0.00 | 79 | 1014.1 |
| 20260508001520 | 66 | 306 | 4.0 | 8.0 | 0.00 | 0.00 | 0.00 | 78 | 1014.1 |
| 20260508001021 | 67 | 318 | 4.0 | 7.0 | 0.00 | 0.00 | 0.00 | 77 | 1014.1 |
| 20260508000527 | 67 | 271 | 2.0 | 7.0 | 0.00 | 0.00 | 0.00 | 78 | 1014.1 |
| 20260508000027 | 67 | 273 | 3.0 | 8.0 | 0.00 | 0.00 | 0.00 | 77 | 1014.1 |
| 20260507235526 | 67 | 288 | 4.0 | 8.0 | 0.00 | 0.00 | 0.00 | 76 | 1014.2 |
| 20260507235031 | 67 | 258 | 2.0 | 7.0 | 0.00 | 0.00 | 0.00 | 76 | 1014.1 |
| 20260507234538 | 67 | 275 | 4.0 | 7.0 | 0.00 | 0.00 | 0.00 | 76 | 1014.1 |
| 20260507234020 | 67 | 278 | 3.0 | 9.0 | 0.00 | 0.00 | 0.00 | 76 | 1014.1 |
| 20260507233523 | 68 | 300 | 4.0 | 9.0 | 0.00 | 0.00 | 0.00 | 76 | 1014.0 |
| 20260507233033 | 68 | 275 | 3.0 | 9.0 | 0.00 | 0.00 | 0.00 | 76 | 1014.1 |
| 20260507232554 | 68 | 291 | 2.0 | 8.0 | 0.00 | 0.00 | 0.00 | 76 | 1014.1 |
| 20260507232035 | 68 | 292 | 4.0 | 8.0 | 0.00 | 0.00 | 0.00 | 75 | 1014.1 |
| 20260507231536 | 68 | 328 | 3.0 | 8.0 | 0.00 | 0.00 | 0.00 | 75 | 1014.1 |
| 20260507231056 | 68 | 286 | 4.0 | 8.0 | 0.00 | 0.00 | 0.00 | 75 | 1014.1 |
| 20260507230540 | 68 | 271 | 5.0 | 9.0 | 0.00 | 0.00 | 0.00 | 74 | 1014.1 |
| 20260507230040 | 69 | 279 | 5.0 | 9.0 | 0.00 | 0.00 | 0.00 | 74 | 1014.0 |
| 20260507225538 | 69 | 236 | 5.0 | 9.0 | 0.00 | 0.00 | 0.00 | 74 | 1014.1 |
| 20260507225022 | 69 | 330 | 4.0 | 10.0 | 0.00 | 0.00 | 0.00 | 74 | 1014.2 |
| 20260507224532 | 69 | 257 | 4.0 | 10.0 | 0.00 | 0.00 | 0.00 | 74 | 1014.2 |
| 20260507224030 | 69 | 295 | 4.0 | 10.0 | 0.00 | 0.00 | 0.00 | 74 | 1014.2 |
| 20260507223528 | 69 | 299 | 4.0 | 9.0 | 0.00 | 0.00 | 0.00 | 74 | 1014.2 |
| 20260507223050 | 68 | 330 | 4.0 | 9.0 | 0.00 | 0.00 | 0.00 | 74 | 1014.3 |
| 20260507222526 | 69 | 317 | 4.0 | 8.0 | 0.00 | 0.00 | 0.00 | 74 | 1014.5 |
| 20260507222030 | 69 | 313 | 4.0 | 8.0 | 0.00 | 0.00 | 0.00 | 73 | 1014.4 |
| 20260507221532 | 69 | 275 | 4.0 | 8.0 | 0.00 | 0.00 | 0.00 | 72 | 1014.5 |
| 20260507221052 | 69 | 296 | 4.0 | 9.0 | 0.00 | 0.00 | 0.00 | 72 | 1014.5 |
| 20260507220529 | 70 | 244 | 5.0 | 10.0 | 0.00 | 0.00 | 0.00 | 71 | 1014.6 |
| 20260507220029 | 70 | 304 | 5.0 | 10.0 | 0.00 | 0.00 | 0.00 | 71 | 1014.6 |
| 20260507215529 | 70 | 277 | 5.0 | 11.0 | 0.00 | 0.00 | 0.00 | 71 | 1014.7 |
| 20260507215020 | 71 | 338 | 5.0 | 11.0 | 0.00 | 0.00 | 0.00 | 71 | 1014.7 |
| 20260507214520 | 71 | 279 | 4.0 | 11.0 | 0.00 | 0.00 | 0.00 | 70 | 1014.7 |
| 20260507214023 | 71 | 258 | 4.0 | 9.0 | 0.00 | 0.00 | 0.00 | 70 | 1014.7 |
| 20260507213552 | 71 | 259 | 3.0 | 12.0 | 0.00 | 0.00 | 0.00 | 70 | 1014.8 |
| 20260507213029 | 71 | 288 | 4.0 | 12.0 | 0.00 | 0.00 | 0.00 | 70 | 1014.9 |
| 20260507212528 | 72 | 281 | 4.0 | 9.0 | 0.00 | 0.00 | 0.00 | 70 | 1014.9 |
| 20260507212025 | 72 | 251 | 5.0 | 9.0 | 0.00 | 0.00 | 0.00 | 69 | 1014.9 |
| 20260507211528 | 72 | 279 | 5.0 | 10.0 | 0.00 | 0.00 | 0.00 | 70 | 1014.9 |
| 20260507211032 | 72 | 249 | 5.0 | 10.0 | 0.00 | 0.00 | 0.00 | 68 | 1014.9 |
| 20260507210536 | 72 | 296 | 4.0 | 10.0 | 0.00 | 0.00 | 0.00 | 69 | 1014.9 |
| 20260507210021 | 72 | 259 | 4.0 | 11.0 | 0.00 | 0.00 | 0.00 | 69 | 1014.9 |
| 20260507205522 | 72 | 294 | 4.0 | 11.0 | 0.00 | 0.00 | 0.00 | 69 | 1015.1 |
| 20260507205032 | 72 | 266 | 7.0 | 11.0 | 0.00 | 0.00 | 0.00 | 69 | 1015.1 |
| 20260507204529 | 72 | 267 | 5.0 | 11.0 | 0.00 | 0.00 | 0.00 | 68 | 1015.1 |
| 20260507204024 | 72 | 229 | 4.0 | 12.0 | 0.00 | 0.00 | 0.00 | 68 | 1015.2 |
| 20260507203530 | 72 | 261 | 4.0 | 12.0 | 0.00 | 0.00 | 0.00 | 68 | 1015.2 |
| 20260507203030 | 72 | 244 | 4.0 | 12.0 | 0.00 | 0.00 | 0.00 | 68 | 1015.1 |
| 20260507202538 | 72 | 253 | 4.0 | 12.0 | 0.00 | 0.00 | 0.00 | 69 | 1015.2 |
| 20260507202038 | 72 | 266 | 5.0 | 13.0 | 0.00 | 0.00 | 0.00 | 68 | 1015.3 |
| 20260507201600 | 72 | 253 | 6.0 | 13.0 | 0.00 | 0.00 | 0.00 | 69 | 1015.2 |
| 20260507201025 | 72 | 245 | 5.0 | 12.0 | 0.00 | 0.00 | 0.00 | 69 | 1015.2 |
| 20260507200544 | 72 | 261 | 6.0 | 12.0 | 0.00 | 0.00 | 0.00 | 68 | 1015.3 |
| 20260507200055 | 72 | 257 | 5.0 | 10.0 | 0.00 | 0.00 | 0.00 | 68 | 1015.3 |
| 20260507195557 | 72 | 288 | 3.0 | 11.0 | 0.00 | 0.00 | 0.00 | 69 | 1015.3 |
| 20260507195041 | 72 | 248 | 6.0 | 11.0 | 0.00 | 0.00 | 0.00 | 68 | 1015.3 |
| 20260507194526 | 72 | 261 | 4.0 | 9.0 | 0.00 | 0.00 | 0.00 | 69 | 1015.3 |
| 20260507194028 | 72 | 247 | 5.0 | 11.0 | 0.00 | 0.00 | 0.00 | 69 | 1015.3 |
| 20260507193528 | 72 | 275 | 4.0 | 12.0 | 0.00 | 0.00 | 0.00 | 69 | 1015.2 |
| 20260507193024 | 72 | 313 | 3.0 | 12.0 | 0.00 | 0.00 | 0.00 | 69 | 1015.3 |
| 20260507192527 | 72 | 274 | 5.0 | 10.0 | 0.00 | 0.00 | 0.00 | 68 | 1015.4 |
| 20260507192028 | 72 | 279 | 3.0 | 9.0 | 0.00 | 0.00 | 0.00 | 70 | 1015.4 |
| 20260507191528 | 72 | 277 | 5.0 | 10.0 | 0.00 | 0.00 | 0.00 | 69 | 1015.5 |
| 20260507191048 | 71 | 265 | 4.0 | 10.0 | 0.00 | 0.00 | 0.00 | 70 | 1015.6 |
| 20260507190528 | 71 | 312 | 4.0 | 9.0 | 0.00 | 0.00 | 0.00 | 69 | 1015.6 |
| 20260507190027 | 71 | 259 | 3.0 | 9.0 | 0.00 | 0.00 | 0.00 | 70 | 1015.7 |
| 20260507185534 | 71 | 277 | 5.0 | 10.0 | 0.00 | 0.00 | 0.00 | 70 | 1015.8 |
| 20260507185037 | 71 | 340 | 4.0 | 10.0 | 0.00 | 0.00 | 0.00 | 70 | 1015.8 |
| 20260507184550 | 71 | 273 | 4.0 | 8.0 | 0.00 | 0.00 | 0.00 | 70 | 1015.9 |
| 20260507184033 | 71 | 254 | 4.0 | 10.0 | 0.00 | 0.00 | 0.00 | 70 | 1015.9 |
| 20260507183532 | 71 | 276 | 4.0 | 10.0 | 0.00 | 0.00 | 0.00 | 70 | 1015.9 |
| 20260507183029 | 71 | 271 | 3.0 | 9.0 | 0.00 | 0.00 | 0.00 | 69 | 1016.0 |
| 20260507182532 | 71 | 273 | 4.0 | 9.0 | 0.00 | 0.00 | 0.00 | 70 | 1016.0 |
| 20260507182037 | 71 | 265 | 3.0 | 9.0 | 0.00 | 0.00 | 0.00 | 70 | 1016.0 |
| 20260507181534 | 71 | 271 | 4.0 | 9.0 | 0.00 | 0.00 | 0.00 | 71 | 1016.1 |
| 20260507181035 | 70 | 256 | 3.0 | 8.0 | 0.00 | 0.00 | 0.00 | 71 | 1016.1 |
| 20260507180540 | 70 | 292 | 3.0 | 9.0 | 0.00 | 0.00 | 0.00 | 71 | 1016.1 |
| 20260507180044 | 70 | 259 | 5.0 | 9.0 | 0.00 | 0.00 | 0.00 | 71 | 1016.1 |
| 20260507175525 | 70 | 225 | 3.0 | 9.0 | 0.00 | 0.00 | 0.00 | 72 | 1016.1 |
| 20260507175030 | 69 | 274 | 5.0 | 9.0 | 0.00 | 0.00 | 0.00 | 73 | 1016.1 |
| 20260507174527 | 69 | 311 | 4.0 | 7.0 | 0.00 | 0.00 | 0.00 | 73 | 1016.1 |
| 20260507174028 | 69 | 322 | 4.0 | 7.0 | 0.00 | 0.00 | 0.00 | 73 | 1016.2 |
| 20260507173532 | 68 | 236 | 3.0 | 9.0 | 0.00 | 0.00 | 0.00 | 74 | 1016.2 |
| 20260507173026 | 68 | 255 | 5.0 | 9.0 | 0.00 | 0.00 | 0.00 | 72 | 1016.2 |
| 20260507172527 | 69 | 286 | 4.0 | 6.0 | 0.00 | 0.00 | 0.00 | 74 | 1016.3 |
| 20260507172025 | 68 | 265 | 2.0 | 6.0 | 0.00 | 0.00 | 0.00 | 74 | 1016.2 |
| 20260507171526 | 68 | 250 | 2.0 | 6.0 | 0.00 | 0.00 | 0.00 | 74 | 1016.2 |
| 20260507171029 | 68 | 252 | 3.0 | 6.0 | 0.00 | 0.00 | 0.00 | 74 | 1016.3 |
| 20260507170532 | 68 | 271 | 2.0 | 7.0 | 0.00 | 0.00 | 0.00 | 74 | 1016.3 |
| 20260507170025 | 68 | 252 | 2.0 | 7.0 | 0.00 | 0.00 | 0.00 | 73 | 1016.3 |
| 20260507165550 | 69 | 284 | 3.0 | 6.0 | 0.00 | 0.00 | 0.00 | 72 | 1016.3 |
| 20260507165027 | 69 | 277 | 2.0 | 6.0 | 0.00 | 0.00 | 0.00 | 71 | 1016.3 |
| 20260507164526 | 70 | 281 | 3.0 | 5.0 | 0.00 | 0.00 | 0.00 | 71 | 1016.3 |
| 20260507164030 | 70 | 286 | 1.0 | 5.0 | 0.00 | 0.00 | 0.00 | 72 | 1016.3 |
| 20260507163530 | 69 | 239 | 2.0 | 3.0 | 0.00 | 0.00 | 0.00 | 74 | 1016.4 |
| 20260507163030 | 68 | 247 | 1.0 | 3.0 | 0.00 | 0.00 | 0.00 | 77 | 1016.5 |
| 20260507162517 | 67 | 248 | 1.0 | 4.0 | 0.00 | 0.00 | 0.00 | 78 | 1016.5 |
| 20260507162022 | 66 | 250 | 0.0 | 4.0 | 0.00 | 0.00 | 0.00 | 80 | 1016.4 |
| 20260507161519 | 65 | 250 | 2.0 | 4.0 | 0.00 | 0.00 | 0.00 | 81 | 1016.3 |
| 20260507161019 | 64 | 250 | 2.0 | 4.0 | 0.00 | 0.00 | 0.00 | 82 | 1016.4 |
| 20260507160520 | 64 | 250 | 1.0 | 3.0 | 0.00 | 0.00 | 0.00 | 83 | 1016.4 |
| 20260507160048 | 64 | 250 | 1.0 | 3.0 | 0.00 | 0.00 | 0.00 | 83 | 1016.4 |
| 20260507155528 | 64 | 250 | 1.0 | 5.0 | 0.00 | 0.00 | 0.00 | 83 | 1016.5 |
| 20260507155030 | 64 | 250 | 2.0 | 5.0 | 0.00 | 0.00 | 0.00 | 83 | 1016.5 |
| 20260507154557 | 64 | 259 | 1.0 | 5.0 | 0.00 | 0.00 | 0.00 | 84 | 1016.5 |
| 20260507154039 | 64 | 238 | 1.0 | 5.0 | 0.00 | 0.00 | 0.00 | 84 | 1016.5 |
| 20260507153521 | 64 | 292 | 1.0 | 4.0 | 0.00 | 0.00 | 0.00 | 84 | 1016.5 |
| 20260507153026 | 64 | 292 | 1.0 | 5.0 | 0.00 | 0.00 | 0.00 | 84 | 1016.5 |
| 20260507152557 | 64 | 301 | 2.0 | 5.0 | 0.00 | 0.00 | 0.00 | 83 | 1016.5 |
| 20260507152019 | 64 | 265 | 2.0 | 5.0 | 0.00 | 0.00 | 0.00 | 83 | 1016.4 |
| 20260507151521 | 64 | 284 | 2.0 | 5.0 | 0.00 | 0.00 | 0.00 | 82 | 1016.5 |
| 20260507151023 | 64 | 306 | 1.0 | 4.0 | 0.00 | 0.00 | 0.00 | 81 | 1016.5 |
| 20260507150528 | 64 | 69 | 0.0 | 2.0 | 0.00 | 0.00 | 0.00 | 82 | 1016.4 |
| 20260507150028 | 63 | 69 | 1.0 | 2.0 | 0.00 | 0.00 | 0.00 | 82 | 1016.3 |
| 20260507145557 | 63 | 69 | 1.0 | 3.0 | 0.00 | 0.00 | 0.00 | 81 | 1016.4 |
| 20260507145022 | 62 | 69 | 1.0 | 3.0 | 0.00 | 0.00 | 0.00 | 81 | 1016.3 |
| 20260507144528 | 62 | 68 | 1.0 | 3.0 | 0.00 | 0.00 | 0.00 | 82 | 1016.4 |
| 20260507144034 | 61 | 69 | 1.0 | 3.0 | 0.00 | 0.00 | 0.00 | 84 | 1016.4 |
| 20260507143520 | 60 | 68 | 1.0 | 4.0 | 0.00 | 0.00 | 0.00 | 85 | 1016.3 |
| 20260507143023 | 60 | 76 | 2.0 | 4.0 | 0.00 | 0.00 | 0.00 | 85 | 1016.2 |
| 20260507142524 | 59 | 86 | 1.0 | 5.0 | 0.00 | 0.00 | 0.00 | 86 | 1016.1 |
| 20260507142052 | 59 | 86 | 1.0 | 5.0 | 0.00 | 0.00 | 0.00 | 87 | 1016.0 |
| 20260507141528 | 58 | 86 | 3.0 | 5.0 | 0.00 | 0.00 | 0.00 | 88 | 1016.0 |
| 20260507141049 | 58 | 63 | 1.0 | 4.0 | 0.00 | 0.00 | 0.00 | 88 | 1016.0 |
| 20260507140529 | 57 | 68 | 2.0 | 4.0 | 0.00 | 0.00 | 0.00 | 89 | 1016.0 |
| 20260507140033 | 57 | 63 | 2.0 | 3.0 | 0.00 | 0.00 | 0.00 | 89 | 1016.0 |
| 20260507135556 | 56 | 65 | 2.0 | 4.0 | 0.00 | 0.00 | 0.00 | 89 | 1015.9 |
| 20260507135035 | 56 | 65 | 3.0 | 4.0 | 0.00 | 0.00 | 0.00 | 89 | 1016.0 |
| 20260507134521 | 56 | 64 | 1.0 | 3.0 | 0.00 | 0.00 | 0.00 | 90 | 1015.9 |
| 20260507134026 | 56 | 64 | 2.0 | 3.0 | 0.00 | 0.00 | 0.00 | 90 | 1015.9 |
| 20260507133528 | 55 | 64 | 1.0 | 2.0 | 0.00 | 0.00 | 0.00 | 91 | 1015.8 |
| 20260507133053 | 55 | 64 | 1.0 | 3.0 | 0.00 | 0.00 | 0.00 | 91 | 1015.8 |
| 20260507132553 | 55 | 64 | 2.0 | 3.0 | 0.00 | 0.00 | 0.00 | 91 | 1015.7 |
| 20260507132035 | 54 | 64 | 1.0 | 3.0 | 0.00 | 0.00 | 0.00 | 91 | 1015.7 |
| 20260507131540 | 54 | 64 | 1.0 | 3.0 | 0.00 | 0.00 | 0.00 | 91 | 1015.7 |
| 20260507131046 | 54 | 64 | 2.0 | 2.0 | 0.00 | 0.00 | 0.00 | 91 | 1015.7 |
| 20260507130527 | 54 | 64 | 1.0 | 2.0 | 0.00 | 0.00 | 0.00 | 91 | 1015.6 |
| 20260507130033 | 54 | 64 | 1.0 | 2.0 | 0.00 | 0.00 | 0.00 | 91 | 1015.6 |
| 20260507125520 | 54 | 64 | 1.0 | 3.0 | 0.00 | 0.00 | 0.00 | 91 | 1015.5 |
| 20260507125026 | 54 | 64 | 1.0 | 3.0 | 0.00 | 0.00 | 0.00 | 91 | 1015.5 |
| 20260507124533 | 54 | 64 | 1.0 | 2.0 | 0.00 | 0.00 | 0.00 | 91 | 1015.5 |
| 20260507124059 | 54 | 64 | 0.0 | 3.0 | 0.00 | 0.00 | 0.00 | 90 | 1015.4 |
| 20260507123524 | 54 | 64 | 1.0 | 3.0 | 0.00 | 0.00 | 0.00 | 90 | 1015.4 |
| 20260507123048 | 54 | 64 | 0.0 | 2.0 | 0.00 | 0.00 | 0.00 | 90 | 1015.4 |
| 20260507122538 | 55 | 64 | 0.0 | 3.0 | 0.00 | 0.00 | 0.00 | 90 | 1015.4 |
| 20260507122026 | 55 | 64 | 1.0 | 3.0 | 0.00 | 0.00 | 0.00 | 90 | 1015.4 |
| 20260507121529 | 55 | 64 | 1.0 | 3.0 | 0.00 | 0.00 | 0.00 | 90 | 1015.4 |
| 20260507121034 | 55 | 64 | 1.0 | 3.0 | 0.00 | 0.00 | 0.00 | 91 | 1015.3 |
| 20260507120518 | 55 | 64 | 1.0 | 3.0 | 0.00 | 0.00 | 0.00 | 91 | 1015.4 |
| 20260507120024 | 55 | 64 | 1.0 | 4.0 | 0.00 | 0.00 | 0.00 | 91 | 1015.3 |
| 20260507115549 | 55 | 64 | 2.0 | 4.0 | 0.00 | 0.00 | 0.00 | 91 | 1015.3 |
| 20260507115028 | 55 | 64 | 2.0 | 4.0 | 0.00 | 0.00 | 0.00 | 91 | 1015.4 |
| 20260507114531 | 55 | 63 | 2.0 | 4.0 | 0.00 | 0.00 | 0.00 | 90 | 1015.3 |